TimeCDT,TemperatureF,Dew PointF,Humidity,Sea Level PressureIn,VisibilityMPH,Wind Direction,Wind SpeedMPH,Gust SpeedMPH,PrecipitationIn,Events,Conditions,WindDirDegrees,DateUTC
12:15 AM,69.8,66.2,88,29.91,10.0,Calm,Calm,-,N/A,,Overcast,0,2013-06-26 05:15:00
12:35 AM,69.8,66.2,88,29.89,10.0,SW,5.8,-,N/A,,Overcast,220,2013-06-26 05:35:00
12:55 AM,69.8,66.2,88,29.88,10.0,SW,4.6,-,N/A,,Mostly Cloudy,220,2013-06-26 05:55:00
1:15 AM,69.8,66.2,88,29.87,10.0,SSW,3.5,-,N/A,,Partly Cloudy,200,2013-06-26 06:15:00
1:35 AM,69.8,66.2,88,29.88,10.0,SSW,3.5,-,N/A,,Partly Cloudy,200,2013-06-26 06:35:00
1:55 AM,69.8,66.2,88,29.89,10.0,WSW,3.5,-,N/A,,Mostly Cloudy,240,2013-06-26 06:55:00
2:15 AM,69.8,66.2,88,29.89,10.0,SSW,6.9,-,N/A,,Overcast,210,2013-06-26 07:15:00
2:35 AM,69.8,64.4,83,29.88,10.0,South,9.2,-,N/A,,Mostly Cloudy,180,2013-06-26 07:35:00
2:55 AM,69.8,64.4,83,29.87,10.0,SSW,9.2,-,N/A,,Clear,200,2013-06-26 07:55:00
3:15 AM,69.8,64.4,83,29.87,10.0,SSW,11.5,-,N/A,,Clear,200,2013-06-26 08:15:00
3:35 AM,69.8,64.4,83,29.86,10.0,SSW,9.2,-,N/A,,Clear,200,2013-06-26 08:35:00
3:55 AM,69.8,64.4,83,29.86,10.0,SSW,6.9,-,N/A,Thunderstorm,Scattered Clouds,210,2013-06-26 08:55:00
4:15 AM,68.0,64.4,88,29.85,10.0,South,8.1,-,0.05,Thunderstorm,Mostly Cloudy,180,2013-06-26 09:15:00
4:35 AM,68.0,64.4,88,29.86,10.0,South,6.9,-,0.05,,Mostly Cloudy,170,2013-06-26 09:35:00
4:55 AM,68.0,64.4,88,29.88,10.0,SE,4.6,-,0.05,,Mostly Cloudy,130,2013-06-26 09:55:00
5:15 AM,68.0,64.4,88,29.85,10.0,SE,9.2,-,N/A,,Scattered Clouds,140,2013-06-26 10:15:00
5:35 AM,68.0,64.4,88,29.86,10.0,South,8.1,-,N/A,,Scattered Clouds,170,2013-06-26 10:35:00
5:55 AM,68.0,64.4,88,29.87,10.0,South,8.1,-,N/A,,Partly Cloudy,190,2013-06-26 10:55:00
6:15 AM,68.0,64.4,88,29.87,10.0,SSE,6.9,-,N/A,,Clear,160,2013-06-26 11:15:00
6:35 AM,68.0,64.4,88,29.87,10.0,South,8.1,-,N/A,,Clear,180,2013-06-26 11:35:00
6:55 AM,68.0,64.4,88,29.87,10.0,South,8.1,-,N/A,,Clear,180,2013-06-26 11:55:00
7:15 AM,69.8,64.4,83,29.87,10.0,SSE,5.8,-,N/A,,Scattered Clouds,150,2013-06-26 12:15:00
7:35 AM,69.8,66.2,88,29.86,10.0,ESE,11.5,-,N/A,,Mostly Cloudy,110,2013-06-26 12:35:00
7:55 AM,69.8,66.2,88,29.87,10.0,SE,8.1,-,N/A,,Mostly Cloudy,140,2013-06-26 12:55:00
8:15 AM,71.6,66.2,83,29.87,10.0,SSE,5.8,-,N/A,,Mostly Cloudy,150,2013-06-26 13:15:00
8:35 AM,71.6,66.2,83,29.87,10.0,South,8.1,-,N/A,,Overcast,170,2013-06-26 13:35:00
8:55 AM,73.4,68.0,83,29.88,10.0,South,5.8,-,N/A,,Overcast,190,2013-06-26 13:55:00
9:15 AM,75.2,69.8,83,29.87,10.0,SSW,11.5,-,N/A,,Scattered Clouds,200,2013-06-26 14:15:00
9:35 AM,77.0,69.8,78,29.87,10.0,SSW,13.8,18.4,N/A,,Scattered Clouds,210,2013-06-26 14:35:00
9:55 AM,78.8,71.6,78,29.86,10.0,SSW,10.4,-,N/A,,Mostly Cloudy,210,2013-06-26 14:55:00
10:15 AM,78.8,69.8,74,29.85,10.0,SSW,15.0,19.6,N/A,,Scattered Clouds,210,2013-06-26 15:15:00
10:35 AM,80.6,69.8,70,29.84,10.0,SW,11.5,18.4,N/A,,Scattered Clouds,220,2013-06-26 15:35:00
10:55 AM,80.6,71.6,74,29.84,10.0,SW,9.2,-,N/A,,Partly Cloudy,220,2013-06-26 15:55:00
11:15 AM,82.4,71.6,70,29.84,10.0,SW,11.5,-,N/A,,Partly Cloudy,230,2013-06-26 16:15:00
11:35 AM,82.4,71.6,70,29.83,10.0,SW,11.5,-,N/A,,Mostly Cloudy,230,2013-06-26 16:35:00
11:55 AM,84.2,71.6,66,29.83,10.0,SW,10.4,-,N/A,,Overcast,230,2013-06-26 16:55:00
12:15 PM,77.0,69.8,78,29.81,10.0,East,9.2,-,N/A,,Overcast,80,2013-06-26 17:15:00
12:35 PM,77.0,69.8,78,29.82,10.0,SW,11.5,18.4,N/A,,Overcast,220,2013-06-26 17:35:00
12:55 PM,82.4,71.6,70,29.81,10.0,SW,12.7,23.0,N/A,Thunderstorm,Mostly Cloudy,220,2013-06-26 17:55:00
1:15 PM,82.4,71.6,70,29.80,10.0,SW,12.7,19.6,N/A,,Overcast,230,2013-06-26 18:15:00
1:35 PM,84.2,71.6,66,29.79,10.0,SSW,12.7,-,N/A,,Mostly Cloudy,210,2013-06-26 18:35:00
1:55 PM,84.2,71.6,66,29.78,10.0,SSW,15.0,-,N/A,,Mostly Cloudy,200,2013-06-26 18:55:00
2:15 PM,84.2,69.8,62,29.77,10.0,SW,15.0,23.0,N/A,,Mostly Cloudy,230,2013-06-26 19:15:00
2:35 PM,84.2,69.8,62,29.77,10.0,SW,17.3,28.8,N/A,,Scattered Clouds,230,2013-06-26 19:35:00
2:55 PM,82.4,69.8,66,29.77,10.0,SW,15.0,-,N/A,,Partly Cloudy,230,2013-06-26 19:55:00
3:15 PM,82.4,69.8,66,29.78,10.0,SW,17.3,21.9,N/A,,Partly Cloudy,220,2013-06-26 20:15:00
3:35 PM,84.2,69.8,62,29.76,10.0,WSW,18.4,23.0,N/A,,Partly Cloudy,240,2013-06-26 20:35:00
3:55 PM,82.4,68.0,62,29.75,10.0,WSW,13.8,-,N/A,,Clear,240,2013-06-26 20:55:00
4:15 PM,80.6,68.0,65,29.75,10.0,WSW,12.7,-,N/A,,Clear,240,2013-06-26 21:15:00
4:35 PM,80.6,66.2,61,29.76,10.0,SW,11.5,-,N/A,,Mostly Cloudy,220,2013-06-26 21:35:00
4:55 PM,78.8,66.2,65,29.76,10.0,WSW,10.4,-,N/A,,Overcast,240,2013-06-26 21:55:00
5:15 PM,80.6,66.2,61,29.75,10.0,SW,10.4,-,N/A,,Scattered Clouds,230,2013-06-26 22:15:00
5:35 PM,80.6,66.2,61,29.75,10.0,SSW,9.2,-,N/A,,Scattered Clouds,210,2013-06-26 22:35:00
5:55 PM,78.8,66.2,65,29.76,10.0,WSW,10.4,-,N/A,,Mostly Cloudy,240,2013-06-26 22:55:00
6:15 PM,78.8,66.2,65,29.76,10.0,SW,9.2,-,N/A,,Overcast,220,2013-06-26 23:15:00
6:35 PM,78.8,66.2,65,29.75,10.0,SSW,5.8,-,N/A,,Overcast,210,2013-06-26 23:35:00
6:55 PM,78.8,66.2,65,29.75,10.0,WSW,9.2,-,N/A,,Overcast,240,2013-06-26 23:55:00
7:15 PM,78.8,66.2,65,29.75,7.0,WSW,8.1,-,N/A,,Overcast,250,2013-06-27 00:15:00
7:35 PM,75.2,68.0,78,29.75,10.0,SW,5.8,-,N/A,,Scattered Clouds,220,2013-06-27 00:35:00
7:55 PM,75.2,68.0,78,29.74,10.0,SSW,3.5,-,N/A,,Partly Cloudy,210,2013-06-27 00:55:00
8:15 PM,73.4,69.8,88,29.74,10.0,South,5.8,-,N/A,,Scattered Clouds,180,2013-06-27 01:15:00
8:35 PM,73.4,68.0,83,29.73,10.0,South,4.6,-,N/A,,Partly Cloudy,170,2013-06-27 01:35:00
8:55 PM,73.4,68.0,83,29.74,10.0,Calm,Calm,-,N/A,,Clear,0,2013-06-27 01:55:00
9:15 PM,73.4,68.0,83,29.73,10.0,Calm,Calm,-,N/A,,Mostly Cloudy,0,2013-06-27 02:15:00
9:35 PM,73.4,68.0,83,29.74,10.0,Calm,Calm,-,N/A,,Mostly Cloudy,0,2013-06-27 02:35:00
9:55 PM,73.4,68.0,83,29.76,10.0,SSW,4.6,-,N/A,,Overcast,200,2013-06-27 02:55:00
10:15 PM,73.4,69.8,88,29.76,10.0,SSW,6.9,-,N/A,,Overcast,200,2013-06-27 03:15:00
10:35 PM,73.4,69.8,88,29.76,10.0,SW,8.1,-,N/A,,Mostly Cloudy,230,2013-06-27 03:35:00
10:55 PM,73.4,69.8,88,29.76,10.0,SW,9.2,-,N/A,,Mostly Cloudy,220,2013-06-27 03:55:00
11:15 PM,73.4,69.8,88,29.76,10.0,SW,10.4,-,N/A,,Scattered Clouds,220,2013-06-27 04:15:00
11:35 PM,73.4,68.0,83,29.76,10.0,WSW,10.4,-,N/A,,Partly Cloudy,240,2013-06-27 04:35:00
11:55 PM,71.6,68.0,88,29.75,10.0,SW,8.1,-,N/A,,Partly Cloudy,230,2013-06-27 04:55:00